Location: Edisto_Beach
(32.4790°N, 80.3350°W)
Time: 18:05:12
(UTC-04:00)

Amateur Radio Satellites - All Passes

Search period start: 25 October 2014 17:35
Search period end: 26 October 2014 17:35
Location: Edisto_Beach, 32.4790°N, 80.3350°W

Satellite Date Start Highest point End Downlink Frequencies (MHz)
Time Altitude Azimuth
AO-7 25 Oct 18:09:08 18:15:58 29° 262° (W) 18:22:51 29.400 - 29.500 MHz
Uosat F 25 Oct 18:11:05 18:14:37 19° 265° (W) 18:18:12 435.120 FM
OPAL 25 Oct 18:19:51 18:24:40 51° 102° (ESE) 18:29:27 ?
Hamsat 25 Oct 18:48:49 18:52:56 52° 260° (W) 18:57:02 145.90 MHz
JAS-2 25 Oct 18:50:00 18:55:28 46° 262° (W) 19:01:41 435.800 - 435.900 CW/SSB, 435.910 FM
ISS 25 Oct 18:53:30 18:54:40 11° 30° (NNE) 18:55:51 145.800 FM
SO-67 25 Oct 19:27:43 19:30:58 42° 76° (ENE) 19:34:14 435.3500 MHz FM
HO-68 25 Oct 19:58:37 20:02:27 15° 59° (ENE) 20:06:16 435.675 MHz FM
OPAL 25 Oct 20:00:23 20:03:05 15° 296° (WNW) 20:05:46 ?
STRAND 1 25 Oct 20:05:29 20:10:39 72° 102° (ESE) 20:15:45 ?
ISS 25 Oct 20:28:24 20:31:44 81° 226° (SW) 20:35:04 145.800 FM
KITSAT 1 25 Oct 20:52:26 20:58:56 26° 50° (NE) 21:05:24 435.175 FM
RS-15 25 Oct 21:01:39 21:10:11 27° 104° (ESE) 21:18:32 29.354 - 29.394 USB, Beacon 29.352 USB
Oscar 11 25 Oct 21:10:46 21:11:27 10° 66° (ENE) 21:12:08 145.825 FM, Beacon 2401.500 USB
SO-50 25 Oct 21:28:44 21:32:05 18° 51° (NE) 21:35:27 436.795 FM
HO-68 25 Oct 21:42:03 21:49:12 85° 255° (WSW) 21:56:25 435.675 MHz FM
STRAND 1 25 Oct 21:47:42 21:49:09 11° 296° (WNW) 21:50:36 ?
ZACube-1 25 Oct 22:00:11 22:03:16 18° 69° (ENE) 22:06:20 437.345 MHz
UKube-1 25 Oct 22:02:13 22:06:26 52° 74° (ENE) 22:10:40 145.840 MHz, 145.915 MHz
Oscar 11 25 Oct 22:42:52 22:47:06 55° 260° (W) 22:51:21 145.825 FM, Beacon 2401.500 USB
FUNcube-1 25 Oct 22:43:04 22:47:33 56° 75° (ENE) 22:52:00 145.950 - 145.970 MHz USB
KITSAT 1 25 Oct 22:46:53 22:54:50 65° 248° (WSW) 23:02:45 435.175 FM
UOSAT-12 25 Oct 22:49:22 22:50:01 10° 46° (NE) 22:50:40 437.025 FM, 437.400 FM
SO-50 25 Oct 23:08:12 23:12:52 47° 246° (WSW) 23:17:32 436.795 FM
RS-15 25 Oct 23:10:32 23:21:31 68° 301° (WNW) 23:32:24 29.354 - 29.394 USB, Beacon 29.352 USB
ZACube-1 25 Oct 23:35:10 23:39:22 35° 262° (W) 23:43:32 437.345 MHz
HO-68 25 Oct 23:36:23 23:37:39 11° 269° (W) 23:38:57 435.675 MHz FM
UKube-1 25 Oct 23:42:32 23:42:51 10° 267° (W) 23:43:10 145.840 MHz, 145.915 MHz
MaSat-1 26 Oct 00:11:14 00:15:20 51° 293° (WNW) 00:19:07 437.345 MHz
FUNcube-1 26 Oct 00:23:16 00:24:09 11° 268° (W) 00:25:02 145.950 - 145.970 MHz USB
UOSAT-12 26 Oct 00:26:04 00:30:47 87° 243° (WSW) 00:35:23 437.025 FM, 437.400 FM
RS-15 26 Oct 01:29:33 01:36:19 18° 326° (NW) 01:43:07 29.354 - 29.394 USB, Beacon 29.352 USB
Oscar 16 26 Oct 01:35:36 01:37:10 11° 92° (E) 01:38:44 437.025 USB, Beacon 2401.1428
Oscar 10/S400 26 Oct 01:40:21 02:50:03 25° 246° (WSW) 05:46:11 145.825 - 145.975 CW/USB, Beacon 145.810 USB
JAS-1B 26 Oct 02:14:12 02:20:42 36° 100° (E) 02:28:15 435.800 - 435.900 CW/SSB
Oscar 19 26 Oct 02:25:59 02:30:48 41° 99° (E) 02:35:37 437.125 CW, 437.150 USB
AO-27 26 Oct 02:47:13 02:51:32 26° 97° (E) 02:55:48 436.795 MHz FM
AO-Echo 26 Oct 02:57:11 03:02:17 45° 99° (E) 03:07:19 ?
Sapphire 26 Oct 03:10:31 03:14:57 26° 107° (ESE) 03:19:23 437.095 MHz 1200 baud AX-25 AFSK
Oscar 16 26 Oct 03:11:48 03:16:51 63° 285° (WNW) 03:21:53 437.025 USB, Beacon 2401.1428
PCSat 26 Oct 03:32:03 03:37:12 48° 110° (ESE) 03:42:23 145.825 MHz
Uribyol 2 26 Oct 03:33:31 03:38:45 84° 103° (ESE) 03:43:55 436.500 FM
ITAMSAT 1 26 Oct 03:39:52 03:45:07 90° 284° (WNW) 03:50:19 435.822 SSB
JAS-1B 26 Oct 04:04:50 04:11:09 38° 289° (WNW) 04:18:33 435.800 - 435.900 CW/SSB
Oscar 19 26 Oct 04:06:19 04:09:47 19° 293° (WNW) 04:13:15 437.125 CW, 437.150 USB
Gurwin Techsat 1B 26 Oct 04:07:03 04:12:23 86° 103° (ESE) 04:17:42 435.225 FM
TMSAT-1 26 Oct 04:17:27 04:22:46 79° 103° (ESE) 04:28:04 436.925 FM
AO-7 26 Oct 04:23:05 04:29:08 22° 96° (E) 04:35:10 29.400 - 29.500 MHz
AO-27 26 Oct 04:26:26 04:30:57 30° 290° (WNW) 04:35:27 436.795 MHz FM
AO-Echo 26 Oct 04:37:01 04:40:37 19° 293° (WNW) 04:44:13 ?
Uosat F 26 Oct 04:44:36 04:47:49 17° 95° (E) 04:51:00 435.120 FM
Sapphire 26 Oct 04:53:20 04:58:10 33° 302° (WNW) 05:03:03 437.095 MHz 1200 baud AX-25 AFSK
PCSat 26 Oct 05:16:55 05:20:49 20° 306° (NW) 05:24:45 145.825 MHz
OPAL 26 Oct 05:30:07 05:35:10 56° 72° (ENE) 05:40:09 ?
PANSAT 26 Oct 05:41:22 05:42:49 12° 156° (SSE) 05:44:15 not established
TMSAT-1 26 Oct 06:00:59 06:01:57 11° 297° (WNW) 06:02:54 436.925 FM
JAS-2 26 Oct 06:03:22 06:10:31 37° 96° (E) 06:17:28 435.800 - 435.900 CW/SSB, 435.910 FM
RS-15 26 Oct 06:06:07 06:14:40 24° 41° (NE) 06:23:24 29.354 - 29.394 USB, Beacon 29.352 USB
AO-7 26 Oct 06:14:06 06:22:20 67° 290° (WNW) 06:30:33 29.400 - 29.500 MHz
Uosat F 26 Oct 06:21:58 06:26:43 43° 288° (WNW) 06:31:27 435.120 FM
Hamsat 26 Oct 06:39:00 06:42:54 36° 98° (E) 06:46:48 145.90 MHz
OPAL 26 Oct 07:11:49 07:14:16 13° 265° (W) 07:16:43 ?
STRAND 1 26 Oct 07:16:46 07:21:49 64° 75° (ENE) 07:26:55 ?
PANSAT 26 Oct 07:19:03 07:22:27 31° 167° (SSE) 07:25:52 not established
Saudisat 1A 26 Oct 07:22:01 07:26:20 64° 116° (ESE) 07:30:41 436.775 MHz
JAS-2 26 Oct 07:48:12 07:55:22 41° 291° (WNW) 08:02:26 435.800 - 435.900 CW/SSB, 435.910 FM
AO-7 26 Oct 08:11:19 08:13:33 11° 308° (NW) 08:15:46 29.400 - 29.500 MHz
Hamsat 26 Oct 08:16:13 08:18:30 14° 291° (WNW) 08:20:47 145.90 MHz
RS-15 26 Oct 08:17:16 08:28:36 89° 63° (ENE) 08:40:26 29.354 - 29.394 USB, Beacon 29.352 USB
SO-67 26 Oct 08:27:57 08:31:24 78° 282° (WNW) 08:34:49 435.3500 MHz FM
PANSAT 26 Oct 08:58:39 09:02:19 46° 180° (S) 09:06:00 not established
STRAND 1 26 Oct 08:59:51 09:01:21 11° 268° (W) 09:02:52 ?
Saudisat 1A 26 Oct 09:04:38 09:06:17 12° 312° (NW) 09:07:58 436.775 MHz
HO-68 26 Oct 09:16:01 09:21:34 24° 96° (E) 09:27:05 435.675 MHz FM
UKube-1 26 Oct 09:56:50 09:58:49 13° 94° (E) 10:00:47 145.840 MHz, 145.915 MHz
MaSat-1 26 Oct 10:01:31 10:03:59 74° 250° (WSW) 10:06:19 437.345 MHz
RS-15 26 Oct 10:32:37 10:39:34 19° 259° (W) 10:46:45 29.354 - 29.394 USB, Beacon 29.352 USB
Oscar 11 26 Oct 10:35:10 10:39:09 36° 98° (E) 10:43:06 145.825 FM, Beacon 2401.500 USB
FUNcube-1 26 Oct 10:38:33 10:40:48 14° 94° (E) 10:43:02 145.950 - 145.970 MHz USB
PANSAT 26 Oct 10:38:45 10:42:12 32° 192° (SSW) 10:45:39 not established
HO-68 26 Oct 11:02:32 11:09:28 53° 290° (WNW) 11:16:23 435.675 MHz FM
KITSAT 1 26 Oct 11:15:43 11:22:29 31° 106° (ESE) 11:29:15 435.175 FM
ZACube-1 26 Oct 11:28:48 11:32:59 64° 101° (E) 11:37:05 437.345 MHz
ISS 26 Oct 11:30:56 11:33:50 28° 130° (SE) 11:36:44 145.800 FM
UKube-1 26 Oct 11:31:01 11:35:08 42° 287° (WNW) 11:39:14 145.840 MHz, 145.915 MHz
SO-50 26 Oct 11:40:47 11:42:55 13° 107° (ESE) 11:45:05 436.795 FM
Oscar 10/S400 26 Oct 11:46:43 12:13:50 33° 154° (SSE) 12:29:54 145.825 - 145.975 CW/USB, Beacon 145.810 USB
Oscar 11 26 Oct 12:12:31 12:14:58 15° 292° (WNW) 12:17:25 145.825 FM, Beacon 2401.500 USB
FUNcube-1 26 Oct 12:13:28 12:17:16 34° 287° (WNW) 12:21:01 145.950 - 145.970 MHz USB
PANSAT 26 Oct 12:20:05 12:21:52 13° 203° (SSW) 12:23:39 not established
PCSat 26 Oct 12:25:51 12:29:08 16° 52° (NE) 12:32:23 145.825 MHz
Oscar 16 26 Oct 12:48:46 12:50:27 12° 64° (ENE) 12:52:07 437.025 USB, Beacon 2401.1428
JAS-1B 26 Oct 12:59:09 13:02:08 14° 64° (ENE) 13:05:03 435.800 - 435.900 CW/SSB
ISS 26 Oct 13:07:53 13:10:30 21° 324° (NW) 13:13:09 145.800 FM
KITSAT 1 26 Oct 13:09:43 13:17:28 50° 302° (WNW) 13:25:16 435.175 FM
SO-50 26 Oct 13:18:40 13:22:58 47° 302° (WNW) 13:27:24 436.795 FM
Oscar 19 26 Oct 13:38:25 13:43:09 38° 72° (ENE) 13:47:52 437.125 CW, 437.150 USB
Sapphire 26 Oct 13:45:11 13:50:37 74° 64° (ENE) 13:56:01 437.095 MHz 1200 baud AX-25 AFSK
AO-27 26 Oct 14:01:07 14:05:19 25° 69° (ENE) 14:09:33 436.795 MHz FM
AO-Echo 26 Oct 14:05:51 14:10:13 34° 71° (ENE) 14:14:44 ?
PCSat 26 Oct 14:07:36 14:12:57 62° 248° (WSW) 14:18:16 145.825 MHz
Oscar 16 26 Oct 14:24:00 14:29:09 70° 258° (WSW) 14:34:17 437.025 USB, Beacon 2401.1428
UOSAT-12 26 Oct 14:32:31 14:37:07 85° 117° (ESE) 14:41:49 437.025 FM, 437.400 FM
JAS-1B 26 Oct 14:46:20 14:52:22 58° 258° (WSW) 14:57:57 435.800 - 435.900 CW/SSB
Uribyol 2 26 Oct 14:46:40 14:51:53 79° 76° (ENE) 14:57:07 436.500 FM
ITAMSAT 1 26 Oct 14:53:10 14:58:22 86° 76° (ENE) 15:03:37 435.822 SSB
AO-7 26 Oct 15:18:06 15:23:52 22° 58° (ENE) 15:29:38 29.400 - 29.500 MHz
Oscar 19 26 Oct 15:18:51 15:22:32 20° 265° (W) 15:26:14 437.125 CW, 437.150 USB
Gurwin Techsat 1B 26 Oct 15:23:28 15:28:46 85° 76° (ENE) 15:34:06 435.225 FM
Sapphire 26 Oct 15:32:11 15:33:19 11° 258° (WSW) 15:34:27 437.095 MHz 1200 baud AX-25 AFSK
TMSAT-1 26 Oct 15:33:31 15:38:48 78° 76° (ENE) 15:44:07 436.925 FM
AO-27 26 Oct 15:40:04 15:44:38 31° 262° (W) 15:49:15 436.795 MHz FM
AO-Echo 26 Oct 15:45:28 15:49:02 20° 266° (W) 15:52:41 ?
Uosat F 26 Oct 15:54:10 15:57:00 15° 66° (ENE) 15:59:50 435.120 FM
Saudisat 1A 26 Oct 15:54:14 15:56:51 15° 50° (NE) 15:59:27 436.775 MHz
UOSAT-12 26 Oct 16:16:58 16:17:52 11° 314° (NW) 16:18:46 437.025 FM, 437.400 FM
AO-7 26 Oct 17:07:33 17:15:48 74° 255° (WSW) 17:24:06 29.400 - 29.500 MHz
Hamsat 26 Oct 17:29:13 17:31:38 15° 69° (ENE) 17:34:03 145.90 MHz
